Location: Bettgenhausen
(50.6463°N, 7.5681°E)
Time: 16:40:59
(UTC+00:00)

Lacrosse 5 - Pass Details

Date: 27 February 2020
Orbit: 715 x 724 km, 57.0° (Epoch: 21 March)

Event Time Altitude Azimuth Distance (km) Brightness Sun altitude
Rises 20:29:20 0° 255° (WSW) 3,114 5.7 -31.9°
Reaches altitude 10° 20:31:45 10° 259° (W) 2,197 4.9 -32.3°
Enters shadow 20:34:52 36° 278° (W) 1,137 3.2 -32.7°
